| time (UTC) | temp F | wind direction | speed MPH | gust MPH | rain 1hr in | rain 24hr in | rain mn in | humidity % | barometer mb |
| 20260906070055 | 82 | 248 | 4.0 | 10.0 | 0.00 | 0.02 | 0.00 | 88 | 1013.9 |
| 20260906064559 | 82 | 240 | 6.0 | 12.0 | 0.00 | 0.02 | 0.00 | 88 | 1013.8 |
| 20260906064501 | 82 | 257 | 5.0 | 9.0 | 0.00 | 0.02 | 0.00 | 88 | 1013.9 |
| 20260906063007 | 82 | 243 | 6.0 | 14.0 | 0.00 | 0.02 | 0.00 | 88 | 1013.9 |
| 20260906061513 | 82 | 236 | 5.0 | 10.0 | 0.00 | 0.02 | 0.00 | 88 | 1013.9 |
| 20260906060057 | 82 | 234 | 4.0 | 7.0 | 0.00 | 0.02 | 0.00 | 89 | 1013.7 |
| 20260906054604 | 81 | 238 | 2.0 | 7.0 | 0.00 | 0.02 | 0.00 | 89 | 1013.8 |
| 20260906054501 | 81 | 238 | 0.0 | 7.0 | 0.00 | 0.02 | 0.00 | 89 | 1013.7 |
| 20260906053003 | 81 | 142 | 2.0 | 7.0 | 0.00 | 0.02 | 0.00 | 89 | 1013.9 |
| 20260906051507 | 81 | 184 | 1.0 | 8.0 | 0.00 | 0.02 | 0.00 | 89 | 1014.2 |
| 20260906050011 | 80 | 130 | 7.0 | 10.0 | 0.00 | 0.02 | 0.00 | 89 | 1014.2 |
| 20260906044520 | 80 | 120 | 8.0 | 10.0 | 0.00 | 0.02 | 0.02 | 89 | 1014.1 |
| 20260906043026 | 80 | 125 | 7.0 | 9.0 | 0.00 | 0.02 | 0.02 | 89 | 1014.1 |
| 20260906041546 | 81 | 133 | 5.0 | 7.0 | 0.00 | 0.02 | 0.02 | 88 | 1014.3 |
| 20260906040040 | 80 | 130 | 4.0 | 6.0 | 0.00 | 0.02 | 0.02 | 88 | 1014.4 |
| 20260906034550 | 81 | 130 | 4.0 | 7.0 | 0.00 | 0.02 | 0.02 | 87 | 1014.3 |
| 20260906033054 | 81 | 126 | 4.0 | 7.0 | 0.00 | 0.02 | 0.02 | 87 | 1014.3 |
| 20260906033001 | 81 | 134 | 4.0 | 7.0 | 0.00 | 0.02 | 0.02 | 87 | 1014.3 |
| 20260906031508 | 81 | 141 | 6.0 | 8.0 | 0.00 | 0.02 | 0.02 | 87 | 1014.2 |
| 20260906030010 | 82 | 135 | 5.0 | 8.0 | 0.00 | 0.02 | 0.02 | 87 | 1014.1 |
| 20260906024610 | 82 | 156 | 5.0 | 8.0 | 0.00 | 0.02 | 0.02 | 86 | 1013.7 |
| 20260906023106 | 82 | 134 | 4.0 | 6.0 | 0.00 | 0.02 | 0.02 | 86 | 1013.5 |
| 20260906023003 | 82 | 122 | 5.0 | 6.0 | 0.00 | 0.02 | 0.02 | 86 | 1013.5 |
| 20260906021508 | 82 | 128 | 3.0 | 5.0 | 0.00 | 0.02 | 0.02 | 85 | 1013.5 |
| 20260906020054 | 82 | 138 | 4.0 | 6.0 | 0.00 | 0.02 | 0.02 | 85 | 1013.3 |
| 20260906014554 | 82 | 120 | 4.0 | 6.0 | 0.00 | 0.02 | 0.02 | 85 | 1013.0 |
| 20260906013048 | 83 | 138 | 3.0 | 7.0 | 0.00 | 0.02 | 0.02 | 84 | 1012.9 |
| 20260906011600 | 83 | 192 | 6.0 | 11.0 | 0.00 | 0.02 | 0.02 | 84 | 1012.7 |
| 20260906010128 | 83 | 127 | 4.0 | 8.0 | 0.00 | 0.02 | 0.02 | 84 | 1012.9 |
| 20260906004508 | 84 | 123 | 6.0 | 10.0 | 0.00 | 0.02 | 0.02 | 83 | 1012.9 |
| 20260906003016 | 84 | 113 | 6.0 | 9.0 | 0.00 | 0.02 | 0.02 | 83 | 1012.8 |
| 20260906001530 | 85 | 129 | 5.0 | 9.0 | 0.00 | 0.02 | 0.02 | 82 | 1012.9 |
| 20260906000026 | 86 | 109 | 7.0 | 11.0 | 0.00 | 0.02 | 0.02 | 82 | 1013.0 |
| 20260905234530 | 86 | 115 | 7.0 | 10.0 | 0.00 | 0.02 | 0.02 | 81 | 1013.1 |
| 20260905233036 | 86 | 106 | 6.0 | 7.0 | 0.00 | 0.02 | 0.02 | 81 | 1013.2 |
| 20260905231545 | 87 | 158 | 4.0 | 6.0 | 0.00 | 0.02 | 0.02 | 80 | 1013.0 |
| 20260905230052 | 87 | 107 | 4.0 | 6.0 | 0.00 | 0.02 | 0.02 | 80 | 1013.0 |
| 20260905224559 | 87 | 119 | 4.0 | 6.0 | 0.00 | 0.02 | 0.02 | 79 | 1012.9 |
| 20260905223018 | 88 | 140 | 4.0 | 8.0 | 0.00 | 0.02 | 0.02 | 78 | 1012.8 |
| 20260905221516 | 88 | 125 | 2.0 | 8.0 | 0.00 | 0.02 | 0.02 | 79 | 1012.7 |
| 20260905220026 | 88 | 153 | 7.0 | 10.0 | 0.00 | 0.02 | 0.02 | 77 | 1012.7 |
| 20260905214532 | 88 | 165 | 5.0 | 11.0 | 0.00 | 0.02 | 0.02 | 78 | 1012.9 |
| 20260905213045 | 88 | 148 | 6.0 | 12.0 | 0.00 | 0.02 | 0.02 | 77 | 1013.1 |
| 20260905211549 | 89 | 173 | 7.0 | 14.0 | 0.00 | 0.02 | 0.02 | 79 | 1013.4 |
| 20260905210052 | 88 | 128 | 7.0 | 11.0 | 0.00 | 0.02 | 0.02 | 80 | 1013.0 |
| 20260905204546 | 87 | 5 | 3.0 | 9.0 | 0.00 | 0.02 | 0.02 | 81 | 1013.4 |
| 20260905203057 | 89 | 10 | 8.0 | 10.0 | 0.00 | 0.02 | 0.02 | 81 | 1013.4 |
| 20260905201556 | 89 | 229 | 6.0 | 10.0 | 0.00 | 0.02 | 0.02 | 80 | 1013.6 |
| 20260905200029 | 89 | 163 | 7.0 | 13.0 | 0.00 | 0.02 | 0.02 | 79 | 1013.7 |
| 20260905194535 | 89 | 115 | 8.0 | 16.0 | 0.00 | 0.02 | 0.02 | 81 | 1013.9 |
| 20260905193042 | 89 | 169 | 8.0 | 14.0 | 0.00 | 0.02 | 0.02 | 80 | 1014.2 |
| 20260905191546 | 89 | 131 | 7.0 | 15.0 | 0.00 | 0.02 | 0.02 | 81 | 1014.1 |
| 20260905190059 | 88 | 107 | 8.0 | 13.0 | 0.00 | 0.02 | 0.02 | 83 | 1014.2 |
| 20260905184504 | 88 | 129 | 8.0 | 15.0 | 0.00 | 0.02 | 0.02 | 83 | 1014.5 |
| 20260905183011 | 88 | 81 | 8.0 | 10.0 | 0.00 | 0.02 | 0.02 | 82 | 1014.7 |
| 20260905181553 | 87 | 110 | 5.0 | 7.0 | 0.00 | 0.02 | 0.02 | 84 | 1014.9 |
| 20260905180058 | 86 | 123 | 4.0 | 6.0 | 0.00 | 0.02 | 0.02 | 85 | 1015.1 |
| 20260905174509 | 86 | 116 | 4.0 | 7.0 | 0.00 | 0.03 | 0.02 | 85 | 1015.3 |
| 20260905173013 | 87 | 76 | 0.0 | 5.0 | 0.00 | 0.03 | 0.02 | 87 | 1015.6 |
| 20260905171521 | 87 | 90 | 0.0 | 5.0 | 0.00 | 0.03 | 0.02 | 87 | 1015.6 |
| 20260905170025 | 86 | 355 | 2.0 | 5.0 | 0.00 | 0.03 | 0.02 | 84 | 1015.6 |
| 20260905164516 | 85 | 5 | 3.0 | 5.0 | 0.00 | 0.38 | 0.02 | 86 | 1015.8 |
| 20260905163057 | 85 | 336 | 3.0 | 6.0 | 0.02 | 0.38 | 0.02 | 88 | 1015.9 |
| 20260905161506 | 84 | 360 | 1.0 | 5.0 | 0.02 | 0.38 | 0.02 | 91 | 1016.0 |
| 20260905160011 | 84 | 82 | 4.0 | 6.0 | 0.02 | 0.70 | 0.02 | 91 | 1016.0 |
| 20260905154517 | 83 | 69 | 2.0 | 7.0 | 0.02 | 0.70 | 0.02 | 90 | 1015.9 |
| 20260905153024 | 84 | 13 | 2.0 | 5.0 | 0.00 | 0.68 | 0.00 | 90 | 1016.1 |
| 20260905151533 | 83 | 12 | 0.0 | 2.0 | 0.00 | 0.68 | 0.00 | 91 | 1016.1 |
| 20260905150031 | 84 | 18 | 0.0 | 4.0 | 0.00 | 0.68 | 0.00 | 91 | 1016.0 |
| 20260905144539 | 84 | 331 | 4.0 | 7.0 | 0.00 | 0.68 | 0.00 | 91 | 1015.9 |
| 20260905143042 | 83 | 290 | 0.0 | 5.0 | 0.00 | 0.68 | 0.00 | 91 | 1015.9 |
| 20260905141545 | 84 | 88 | 1.0 | 4.0 | 0.00 | 0.68 | 0.00 | 92 | 1016.0 |
| 20260905140049 | 83 | 84 | 1.0 | 4.0 | 0.00 | 0.68 | 0.00 | 92 | 1015.8 |